カタログに戻る

MIRANDA

X-4

運用中科学PO
NORAD 7213·PAYLOAD·🇬🇧 United Kingdom

打ち上げ Mar 9, 1974 から Vandenberg Space Force Base

Loading…

次のパス (今後24時間)

TLE

最新Source: Space-Track

元期: Sep 14, 2026, 00:36 UTC

1 07213U 74013A   26257.02520080  .00000286  00000-0  84633-4 0  9991
2 07213  97.7919 105.3616 0113854  64.8187 296.4762 14.46175084732474

AllMySatでMIRANDAをリアルタイム追跡

Download on the App Store